Other Surface Observations
Issued by NWS

Home | Current Version | Previous Version | Text Only | Print | Product List | Glossary On
Versions: 1 2 3 4 5 6 7 8 9 10 11 12 13 14 15 16 17 18 19 20 21 22 23 24 25 26 27 28 29 30 31 32 33 34 35 36 37 38 39 40 41 42 43 44 45 46 47 48 49 50
357
SXUS52 KTAE 160718
OSOTAE
OSOTAE
North Florida/South Alabama/Southwest Georgia Weather Roundup
National Weather Service Tallahassee Florida
200 AM EST TUE JAN 16 2018

Note: "fair" indicates few or no clouds below 12,000 feet with no
significant weather and/or obstructions to visibility.

!FLZ017-115-028-034-025-160800
...North Florida...

CITY           SKY/WX    TMP DP  RH WIND       PRES   REMARKS
TALLAHASSEE    FAIR      35  30  82 CALM      30.40S
APALACHICOLA   FAIR      38  34  85 NE6       30.39S WCI  33
PERRY          FAIR      38  32  79 CALM      30.41S
CROSS CITY     FAIR      32  31  96 CALM      30.44S
JACKSONVILLE   FAIR      36  32  85 CALM      30.40R
$$

!FLZ112-006-005-002-011-160800
...Florida Panhandle...

CITY           SKY/WX    TMP DP  RH WIND       PRES   REMARKS
MARIANNA       FAIR      33  30  88 CALM      30.40R
BONIFAY        NOT AVBL
PANAMA CITY NW FAIR      36  31  82 CALM      30.39R
TYNDALL AFB    FAIR      43  33  68 E5        30.40R WCI  40
TYND DRONE APT FAIR      40  33  75 NE5       30.40S WCI  37
DE FUNIAK SPR  FAIR      37  31  78 CALM      30.41R
EGLIN AFB      CLEAR     35  31  85 CALM      30.40S
DESTIN         FAIR      42  35  76 CALM      30.41R
HURLBURT       FAIR      35  32  90 CALM      30.39S
CRESTVIEW      FAIR      29  27  92 CALM      30.41F
PENSACOLA      FAIR      39  34  82 CALM      30.39F
$$

!ALZ063-066-160800
...South Alabama...

CITY           SKY/WX    TMP DP  RH WIND       PRES   REMARKS
DOTHAN         FAIR      35  30  82 NE3         N/A
OZARK CAIRNS   FAIR      35  28  75 NE3       30.40R
FT RUCKER HELI FAIR      31  31 100 CALM      30.40S
RUCKER HELI 3    N/A     36  31  82 CALM      30.40S
RUCKER HELI 2  FAIR      31  30  95 CALM      30.39S
FLORALA APT    FAIR      32  28  85 CALM      30.42S
ANDALUSIA      FAIR      34  30  85 CALM      30.39S
TROY           FAIR      30  27  88 CALM      30.40S
EUFALA         FAIR      30  28  92 CALM      30.40S
MOBILE         FAIR      40  36  86 CALM      30.38F
$$

!GAZ120>161-160800
...Southwest and South Central Georgia...

CITY           SKY/WX    TMP DP  RH WIND       PRES   REMARKS
THOMASVILLE    FAIR      37  32  81 SE3       30.41S
BAINBRIDGE       N/A     37  36  93 CALM      30.41R
MOODY AFB      FAIR      34  30  86 E3        30.39F
VALDOSTA       FAIR      32  29  88 CALM      30.41S
MOULTRIE       FAIR      37  30  75 CALM      30.40F
BLAKELY        NOT AVBL
ALBANY         FAIR      32  29  88 N3        30.43S
TIFTON         FAIR      32  30  92 CALM      30.40F
FITZGERALD     FAIR      32  31  96 CALM      30.43F
CORDELE        FAIR      34  30  84 CALM      30.43S
AMERICUS       FAIR      32  23  69 NE3       30.43S
HOMERVILLE     FAIR      32  32 100 CALM      30.42S
$$

!GMZ750-755-770-775-160800
...Coastal and Buoy Obs...

STATION/POSITION TIME  TEMP    WIND        PRES    VSBY  WAVE
                       AIR SEA DIR/SP/G                  HT/PER
                 (UTC) (F)     (DEG/KT/KT) (MB)    (MI)  (FT/S)
KEATON BEACH     0700   40      50/  3/  5 1028.9S
CEDAR KEY        0700   44      70/ 10/ 11 1029.0F
C TOWER          0700   54     110/ 15/ 16 1029.3R
APALACHICOLA BUO NOT AVBL
PANAMA CITY BUOY 0650   61 70   90/ 14/ 17 1027.3F         3/ 5
MOBILE BUOY      0700   61      80/ 10/ 14 1028.5
ORANGE BCH AL BU NOT AVBL
$$




USA.gov is the U.S. government's official web portal to all federal, state and local government web resources and services.